Corvallis, OR

3:40 AM PDT on August 29, 2015 (GMT -0700)
Cascade View Estates | | Change Station
CLOSE
Current Station
Personal Weather Station
Location: Corvallis, OR
Elevation: 666 ft
Nearby Weather Stations
Active Advisory: Wind Advisory

Elev 666 ft 44.64 °N, 123.26 °W | Updated 16 seconds ago

Rain
Rain
64.0 °F
Feels Like 64.0 °F
N
2.0
Wind Variable Wind from SSE
Gusts 2.0 mph

Today
High -- | Low -- °F
--% Chance of Precip.
Yesterday
High -- | Low -- °F
Precip. -- in
6:31 AM 7:55 PM
Full, 100% visible
Pressure 29.66 in
Visibility 10.0 miles
Clouds Few 3800 ft
Scattered Clouds 7500 ft
Overcast 9000 ft
Dew Point 62 °F
Humidity 92%
Rainfall 0.00 in
Snow Depth Not available.
UV 0 out of 12
Pollen 1.70 out of 12
Air Quality Not available.
Flu Activity Not available.
METAR KCVO 291035Z 22006KT 10SM FEW038 SCT075 OVC090 18/16 A2966 RMK AO1 TSE09B11E26 P0005
Pressure 29.66 in
Visibility 10.0 miles
Clouds Few 3800 ft
Scattered Clouds 7500 ft
Overcast 9000 ft
Dew Point 62 °F
Humidity 92%
Rainfall 0.00 in
Snow Depth Not available.
UV 0 out of 12
Pollen 1.70 out of 12
Air Quality Not available.
Flu Activity Not available.
METAR KCVO 291035Z 22006KT 10SM FEW038 SCT075 OVC090 18/16 A2966 RMK AO1 TSE09B11E26 P0005

10-Day Weather Forecast

×

Almanac

Astronomy

Aug. 29, 2015 Rise Set
Actual Time
Civil Twilight
Nautical Twilight
Astronomical Twilight
Moon
Length of Visible Light
Length of Day
Tomorrow will be .
, % of the Moon is Illuminated

Today's Extremes

State Highs State Lows

Community

WunderPhotos

Upload Photos

1,850,633 photos uploaded!

WunderBlogs® & News

Nearby

Air Quality

  Air Quality AQ Index Pollutant
Not available.

Snow Depth

Station Depth Elevation

Earthquake Activity

City Distance Mag. Time & Date
Minimum magnitude displayed is 2.5.

Coastal Water Temperatures

Place Temperature

Stations

Nearby Weather Stations

Station Location Temp. Windchill Dew Point Humidity Wind Precip. Elev Updated Type
                   
Wind Advisory
Statement as of 9:13 PM PDT on August 28, 2015

... Wind Advisory remains in effect from 6 am to noon PDT
Saturday for the southern and central Willamette Valley...

A Wind Advisory remains in effect from 6 am to noon PDT Saturday.



* Winds: south winds 15 to 25 mph with gusts 35 to 45 mph.

* Timing: 6 am to noon Saturday.

* Locations include: Eugene... Springfield... Corvallis...
Albany... Salem... McMinnville.

* Impacts: with a full set of leaves on trees... these winds
could cause tree damage and local power disruptions. These
winds could cause problems for outdoor events... especially
those with temporary outdoor facilities such as tents and
canopies.




Precautionary/preparedness actions...

A Wind Advisory is issued when winds may cause minor property
damage without extra precautions. Motorists in high profile
vehicles should use caution until the winds subside.